TimeCST,TemperatureF,Dew PointF,Humidity,Sea Level PressureIn,VisibilityMPH,Wind Direction,Wind SpeedMPH,Gust SpeedMPH,PrecipitationIn,Events,Conditions,WindDirDegrees,DateUTC
12:52 AM,16.0,10.9,81,30.29,10.0,West,8.1,-,N/A,,Clear,270,2013-01-06 06:52:00
1:52 AM,14.0,10.0,84,30.30,10.0,West,6.9,-,N/A,,Clear,260,2013-01-06 07:52:00
2:52 AM,10.9,8.1,88,30.32,10.0,West,5.8,-,N/A,,Clear,270,2013-01-06 08:52:00
3:52 AM,10.9,7.0,84,30.32,10.0,West,8.1,-,N/A,,Clear,260,2013-01-06 09:52:00
4:52 AM,12.0,7.0,80,30.32,10.0,West,9.2,-,N/A,,Clear,280,2013-01-06 10:52:00
5:52 AM,10.0,6.1,84,30.32,10.0,West,6.9,-,N/A,,Clear,260,2013-01-06 11:52:00
6:52 AM,10.0,5.0,80,30.33,10.0,WSW,8.1,-,N/A,,Clear,240,2013-01-06 12:52:00
7:52 AM,10.9,7.0,84,30.33,10.0,WSW,9.2,-,N/A,,Clear,250,2013-01-06 13:52:00
8:52 AM,18.0,12.0,78,30.31,10.0,WSW,9.2,-,N/A,,Clear,240,2013-01-06 14:52:00
9:52 AM,19.9,15.1,81,30.30,10.0,WSW,4.6,-,N/A,,Clear,240,2013-01-06 15:52:00
10:52 AM,28.0,18.0,66,30.27,10.0,SSW,4.6,-,N/A,,Clear,200,2013-01-06 16:52:00
11:52 AM,37.0,18.0,46,30.21,10.0,SSW,12.7,-,N/A,,Clear,210,2013-01-06 17:52:00
12:52 PM,45.0,17.1,33,30.14,10.0,SSW,18.4,-,N/A,,Clear,210,2013-01-06 18:52:00
1:52 PM,45.0,18.0,34,30.10,10.0,SSW,19.6,27.6,N/A,,Clear,210,2013-01-06 19:52:00
2:52 PM,46.0,19.0,34,30.07,10.0,SSW,21.9,-,N/A,,Clear,210,2013-01-06 20:52:00
3:52 PM,46.0,19.9,35,30.04,10.0,SSW,18.4,-,N/A,,Clear,210,2013-01-06 21:52:00
4:52 PM,39.9,21.9,49,30.03,10.0,SSW,17.3,-,N/A,,Clear,200,2013-01-06 22:52:00
5:52 PM,37.0,21.9,54,30.01,10.0,SSW,15.0,-,N/A,,Clear,200,2013-01-06 23:52:00
6:52 PM,34.0,19.9,56,30.00,10.0,SSW,16.1,-,N/A,,Clear,210,2013-01-07 00:52:00
7:52 PM,32.0,21.0,64,29.98,10.0,SSW,12.7,19.6,N/A,,Clear,210,2013-01-07 01:52:00
8:52 PM,32.0,21.0,64,29.97,10.0,SW,10.4,-,N/A,,Clear,220,2013-01-07 02:52:00
9:52 PM,30.9,21.9,69,29.96,10.0,SW,10.4,-,N/A,,Clear,220,2013-01-07 03:52:00
10:52 PM,28.9,21.0,72,29.95,10.0,NW,8.1,-,N/A,,Clear,320,2013-01-07 04:52:00
11:52 PM,26.1,19.9,78,29.93,10.0,West,4.6,-,N/A,,Clear,270,2013-01-07 05:52:00